Погода в Пасьве

Россия / Архангельская область     61°35′03″N   42°42′56″E
темп.,
°C
ветер,
м/с
пор.,
м/с
влажн.,
%
обл.,
%
осадки,
мм/ч
давл.,
гПа
погр.,
м
13 мая, чт
чт1300:00+13ююв22670 0.0 102435
03:00+11ююв23730 0.0 102447
06:00+15ююв24630 0.0 1023142
09:00+22ю35504 0.0 1022589
12:00+26ю463416 0.0 10212859
15:00+24ю244074 0.0 10201231
18:00+22ю3652100 0.1 1019677
21:00+16юв367799 0.4 101896
14 мая, пт
пт1400:00+15вюв3683100 0.1 1016100
03:00+14ю1290100 0.3 101538
06:00+15ю3991100 0.5 1015430
09:00+18юз367255 0.6 1015976
12:00+22зюз574356 0.3 10161856
15:00+23юз583524 0.3 10162492
18:00+20ююз5849100 0.0 10151214
21:00+15ю237072 0.0 101656
15 мая, сб
сб1500:00+13ю248226 0.0 101668
03:00+12ююв239154 0.0 101652
06:00+14ююв258089 0.0 1015181
09:00+15юв2683100 0.1 1014214
12:00+24ююв484394 0.1 10112209
15:00+22ю376259 1.4 1010815
18:00+22ю2562100 0.3 1007536
21:00+15юв3894100 2.7 1006205
16 мая, вс
вс1600:00+14ю31096100 0.8 1007484
03:00+13ю5139639 0.8 1006506
06:00+14ююз51185100 0.0 1006851
09:00+14ююз51087100 0.2 10071026
12:00+15юз5108494 0.1 1009881
15:00+19зюз596195 0.3 10101528
18:00+19зюз366157 0.4 10101416
21:00+12ссз11885 0.5 101215
17 мая, пн
пн1700:00+10сз11905 0.0 101310
03:00+9зсз11938 0.0 101511
06:00+12сз127651 0.0 1016185
09:00+17з23545 0.0 1018952
12:00+21зсз233912 0.0 10171987
15:00+22з233548 0.0 10172422
18:00+21ссз234473 0.0 10171153
21:00+14в24702 0.0 101860